Location: Noyers
(47.2770°N, 1.4032°E)
Time: 02:33:06
(UTC+00:00)

Okean O Rocket - Pass Details

Date: 15 May 2026
Orbit: 614 x 633 km, 98.0° (Epoch: 8 June)

Event Time Altitude Azimuth Distance (km) Brightness Sun altitude
Exits shadow 21:29:46 10° 205° (SSW) 1,939 3.8 -16.5°
Maximum altitude 21:33:24 29° 265° (W) 1,142 3.2 -16.9°
Drops below altitude 10° 21:37:10 10° 325° (NW) 1,984 5.5 -17.2°
Sets 21:39:37 0° 337° (NNW) 2,896 6.7 -17.4°
